Bedminster, NJ

2:01 PM EST on December 06, 2016 (GMT -0500)
Somerset

Weather History for KSMQ - January, 2012

Change the Weather History Date:

Thursday, January 5, 2012

  Actual Average Record
Temperature  
Mean Temperature 31 °F -  
Max Temperature 39 °F 37 °F 64 °F (1950)
Min Temperature 23 °F 20 °F -7 °F (1981)
Degree Days  
Heating Degree Days 34    
Moisture  
Dew Point 18 °F    
Average Humidity 62    
Maximum Humidity 85    
Minimum Humidity 41    
Precipitation  
Precipitation 0.00 in - - ()
Sea Level Pressure  
Sea Level Pressure 29.93 in    
Wind  
Wind Speed 2 mph (WNW)    
Max Wind Speed 10 mph    
Max Gust Speed 21 mph    
Visibility 10 miles    
Events      
Averages and records for this station are not official NWS values.
T = Trace of Precipitation, MM = Missing Value Source: NWS Daily Summary

Daily Weather History Graph

Daily Weather History Graph

Search for Another Location

Airport or City:

Trip Planner

Search our weather history database for the weather conditions in past years. The results will help you decide how hot, cold, wet, or windy it might be!

Date:

Astronomy

Jan. 05, 2012 Rise Set
Actual Time 7:22 AM EST 4:45 PM EST
Civil Twilight 6:52 AM EST 5:16 PM EST
Nautical Twilight 6:17 AM EST 5:50 PM EST
Astronomical Twilight 5:44 AM EST 6:23 PM EST
Moon 1:47 PM EST (1/5) 4:05 AM EST (1/5)
Length of Visible Light 10h 24m
Length of Day
9h 22m
Waxing Gibbous, 87% of the Moon is Illuminated
Jan 5
Waxing Gibbous
Jan 9
Full
Jan 16
Last Quarter
Jan 23
New
Jan 30
First Quarter

Hourly Weather History & Observations

Time (EST) Temp. Windchill Dew Point Humidity Pressure Visibility Wind Dir Wind Speed Gust Speed Precip Events Conditions
12:53 AM 24.1 °F - 14.0 °F 65% 29.96 in 10.0 mi Calm Calm - N/A   Overcast
1:53 AM 25.0 °F - 16.0 °F 69% 29.94 in 10.0 mi Calm Calm - N/A   Overcast
2:53 AM 26.1 °F - 15.1 °F 63% 29.92 in 10.0 mi Calm Calm - N/A   Overcast
3:53 AM 26.1 °F - 15.1 °F 63% 29.90 in 10.0 mi Calm Calm - N/A   Overcast
4:53 AM 26.1 °F - 17.1 °F 69% 29.90 in 10.0 mi Calm Calm - N/A   Overcast
5:53 AM 26.1 °F - 18.0 °F 71% 29.91 in 10.0 mi Calm Calm - N/A   Overcast
6:53 AM 26.1 °F - 18.0 °F 71% 29.94 in 10.0 mi Calm Calm - N/A   Overcast
7:53 AM 27.0 °F - 19.0 °F 72% 29.93 in 10.0 mi Calm Calm - N/A   Overcast
8:53 AM 28.9 °F 25.2 °F 17.1 °F 61% 29.95 in 10.0 mi West 3.5 mph - N/A   Overcast
9:53 AM 30.9 °F - 17.1 °F 57% 29.95 in 10.0 mi Calm Calm - N/A   Overcast
10:53 AM 33.1 °F 30.0 °F 18.0 °F 54% 29.92 in 10.0 mi Variable 3.5 mph - N/A   Mostly Cloudy
11:53 AM 37.9 °F 31.5 °F 19.9 °F 48% 29.88 in 10.0 mi West 9.2 mph - N/A   Clear
12:53 PM 39.0 °F 34.0 °F 19.9 °F 46% 29.88 in 10.0 mi WNW 6.9 mph 16.1 mph N/A   Scattered Clouds
1:53 PM 39.0 °F 32.8 °F 19.0 °F 45% 29.87 in 10.0 mi West 9.2 mph 19.6 mph N/A   Overcast
2:53 PM 39.9 °F 33.9 °F 18.0 °F 41% 29.88 in 10.0 mi WNW 9.2 mph 20.7 mph N/A   Overcast
3:53 PM 37.9 °F 30.9 °F 19.0 °F 47% 29.90 in 10.0 mi WNW 10.4 mph 17.3 mph N/A   Overcast
4:53 PM 37.0 °F 32.4 °F 19.0 °F 48% 29.93 in 10.0 mi Variable 5.8 mph 19.6 mph N/A   Overcast
5:53 PM 37.0 °F 33.3 °F 19.0 °F 48% 29.95 in 10.0 mi Variable 4.6 mph - N/A   Overcast
6:53 PM 32.0 °F - 19.0 °F 59% 29.96 in 10.0 mi Calm Calm - N/A   Clear
7:53 PM 27.0 °F - 19.0 °F 72% 29.96 in 10.0 mi Calm Calm - N/A   Clear
8:53 PM 26.1 °F - 19.0 °F 75% 29.96 in 10.0 mi Calm Calm - N/A   Clear
9:53 PM 25.0 °F - 18.0 °F 75% 29.98 in 10.0 mi Calm Calm - N/A   Clear
10:53 PM 23.0 °F - 19.0 °F 85% 29.96 in 10.0 mi Calm Calm - N/A   Clear
11:53 PM 23.0 °F - 19.0 °F 85% 29.96 in 10.0 mi Calm Calm - N/A   Clear